Satellite: METEOR-M
Catalog number: 35865
Epoch time: 09357.62725017
Element set: 84
Inclination: 098.7854 deg
RA of node: 047.4614 deg
Eccentricity: 0.0002740
Arg of perigee: 137.6542 deg
Mean anomaly: 222.4803 deg
Mean motion: 14.21828393 rev/day
Decay rate: 1.76e-06 rev/day^2
Epoch rev: 1377
Checksum: 305
/EX
More information about the Keps
mailing list